Location: Unspecified
(58.9933°N, 5.6375°E)
Time: 08:48:09
(UTC+02:00)

CZ-3 Stage 3 - Visible Passes

Search period start: 28 May 2017 00:00
Search period end: 07 June 2017 00:00
Orbit: 407 x 34791 km, 30.8° (Epoch: 27 May)

Date Brightness Start Highest point End Pass type
(mag) Time Alt. Az. Time Alt. Az. Time Alt. Az.
28 May 9.3 23:51:33 10° W 01:13:43 31° WSW 04:59:19 10° W visible
29 May 8.7 20:03:35 10° WSW 21:16:02 51° S 04:04:12 10° SW daylight
30 May 7.8 16:28:03 10° SSW 16:59:37 38° SE 00:56:33 10° SSE visible
31 May 9.3 23:42:05 10° W 01:02:35 30° WSW 04:43:58 10° W daylight
01 Jun 8.7 19:54:10 10° WSW 21:04:17 51° S 03:50:39 10° SW daylight
02 Jun 7.8 16:18:35 10° SSW 16:48:53 38° SE 00:44:41 10° SSE visible
03 Jun 9.3 23:32:36 10° W 00:51:26 30° WSW 04:28:33 10° W daylight
04 Jun 8.8 19:44:43 10° WSW 20:52:35 50° S 03:36:57 10° SW daylight
05 Jun 7.7 16:09:06 10° SSW 16:38:15 38° SE 00:32:39 10° SSE visible
